• Processing (Info)

  • MPEC 2015-T126: 2015 TQ237

    The following Minor Planet Electronic Circular may be linked-to from your own Web pages, but must not otherwise be redistributed electronically.

    A form allowing access to any MPEC is at the bottom of this page.


    Read MPEC 2015-T125 Read MPEC 2015-T127


    M.P.E.C. 2015-T126                               Issued 2015 Oct. 15, 14:27 UT
    
         The Minor Planet Electronic Circulars contain information on unusual
             minor planets and routine data on comets.  They are published
        on behalf of Division F of the International Astronomical Union by the
              Minor Planet Center, Smithsonian Astrophysical Observatory,
                              Cambridge, MA 02138, U.S.A.
    
                 Prepared using the Tamkin Foundation Computer Network
    
                                  MPC@CFA.HARVARD.EDU
                URL https://www.minorplanetcenter.net/    ISSN 1523-6714
    
                                      2015 TQ237
    
    Observations:
         K15TN7Q* C2015 10 12.30615 00 29 28.60 +36 05 45.6          21.7 VqET126G96
         K15TN7Q  C2015 10 12.30959 00 29 28.41 +36 05 34.7          22.0 VqET126G96
         K15TN7Q  C2015 10 12.31304 00 29 28.24 +36 05 23.3          21.4 VqET126G96
         K15TN7Q  C2015 10 12.31648 00 29 28.05 +36 05 12.4          22.1 VqET126G96
         K15TN7Q  C2015 10 12.38275 00 29 24.75 +36 01 39.3          21.9 VqET126G96
         K15TN7Q  C2015 10 12.38551 00 29 24.59 +36 01 30.9          21.3 VqET126G96
         K15TN7Q  C2015 10 12.38831 00 29 24.46 +36 01 21.8          21.7 VqET126G96
         K15TN7Q  C2015 10 14.27671 00 28 19.96 +34 21 23.7          22.2 VqET126G96
         K15TN7Q  C2015 10 14.28610 00 28 19.53 +34 20 53.7                qET126G96
         K15TN7Q  C2015 10 14.30109 00 28 18.81 +34 20 05.1          21.4 VqET126G96
         K15TN7Q  C2015 10 14.31049 00 28 18.35 +34 19 34.6          21.7 VqET126G96
         K15TN7Q  C2015 10 15.18938 00 27 52.91 +33 32 43.1          21.8 VqET126G96
         K15TN7Q  C2015 10 15.19199 00 27 52.79 +33 32 35.2          21.5 VqET126G96
         K15TN7Q  C2015 10 15.19461 00 27 52.69 +33 32 27.2          21.8 VqET126G96
         K15TN7Q  C2015 10 15.19723 00 27 52.61 +33 32 18.6          21.6 VqET126G96
    
    Observer details:
    G96 Mt. Lemmon Survey.  Observers R. G. Matheny, J. A. Johnson.  Measurers
        E. J. Christensen, D. C. Fuls, A. R. Gibbs, A. D. Grauer, R. E. Hill,
        J. A. Johnson, R. A. Kowalski, S. M. Larson, R. G. Matheny, F. C. Shelly.
        1.5-m reflector + CCD.
    
    Orbital elements:
    2015 TQ237                                               Earth MOID = 0.0532 AU
    Epoch 2016 Jan. 13.0 TT = JDT 2457400.5                 MPC
    M 149.24131              (2000.0)            P               Q
    n   0.72605761     Peri.   46.47680     +0.12841530     +0.97992186
    a   1.2259949      Node   231.53006     -0.95679642     +0.08196473
    e   0.1630871      Incl.   11.23344     -0.26086419     +0.18175512
    P   1.36           H   23.1           G   0.15           U   8
    Residuals in seconds of arc
    151012 G96  0.1-  0.3+    151012 G96  0.1+  0.0     151014 G96  0.5-  0.4-
    151012 G96  0.2-  0.3+    151012 G96  0.2+  0.0     151015 G96  0.0   0.3-
    151012 G96  0.1-  0.1-    151014 G96  0.1+  0.3+    151015 G96  0.2-  0.0
    151012 G96  0.2-  0.0     151014 G96  0.2+  0.3+    151015 G96  0.0   0.3+
    151012 G96  0.4+  0.5-    151014 G96  0.1-  0.1-    151015 G96  0.4+  0.0
    
    Ephemeris:
    2015 TQ237               a,e,i = 1.23, 0.16, 11                  q = 1.0261
    Date    TT    R. A. (2000) Decl.     Delta      r     Elong.  Phase     V
    2015 09 15    00 54 06.2 +54 01 04   0.2641  1.1607   120.0    48.6    22.4
    ...
    2015 09 30    00 39 54.8 +45 57 59   0.2548  1.1991   136.4    35.2    22.0
    ...
    2015 10 08    00 32 35.2 +39 47 35   0.2566  1.2195   145.5    27.6    21.8
    ...
    2015 10 14    00 28 29.2 +34 36 08   0.2629  1.2347   151.3    22.9    21.7
    2015 10 15    00 27 57.6 +33 42 53   0.2645  1.2372   152.0    22.2    21.7
    2015 10 16    00 27 29.0 +32 49 31   0.2662  1.2397   152.7    21.6    21.7
    ...
    2015 10 22    00 25 41.6 +27 32 14   0.2797  1.2546   155.1    19.5    21.8
    ...
    2015 10 30    00 26 09.5 +21 00 53   0.3064  1.2739   153.0    20.7    22.1
    ...
    2015 11 14    00 34 41.7 +11 44 37   0.3814  1.3079   140.9    28.5    22.8
    
    A. U. Tomatic                (C) Copyright 2015 MPC           M.P.E.C. 2015-T126
    

    Read MPEC 2015-T125 Read MPEC 2015-T127


    MPEC number:

    Enter an MPEC number in one of the following forms:

    • 1997-B01 (the full form)
    • J97B01 (the packed version of the full form)
    • B01 (the abbreviated form)